Hovedside
METAR-TAF:

METAR-TAF

Lufthavner :

Honningsvåg lufthavn. Valan

Honningsvåg, Norge

breddegrad: 71-01N, lengdegrad: 025-59E, høyde over havet: 1 m

Gjeldene værobservasjon

Denne rapporten ble laget for 58 minutter siden, klokken 03:20 UTC
Vind 8 kt fra Vest
Temperatur 4°C
Luftfuktighet 87%
Trykk 992 hPa
Sikt 10 km eller mer
Brutte skyer i en høyde av 1500 ft
regn

METAR: ENHV 240320Z 27008KT 9999 RA BKN015 04/02 Q0992

Tid: 06:18 (04:18 UTC)


TAF: fraværende

Værobservasjoner og værvarsel for over 4000 flyplasser (METAR- og TAF-rapporter).

Tilgjengelige stasjoner er representert av de røde og gule prikkene på kartet.

Hold musepekeren over prikken for å se navnet på stasjonen.

Klikk så for å se værobservasjoner og -varsler.

For å forandre kartet kan du klikke på den grønne knappen med svart kryss for å zoome inn, på den grønne knappen med strek for å zoome ut, eller på de grønne pilene for å se tilstøtende kart.


METAR-TAF: